This demonstration page uses our WeatherBlox Daily Observations layout. Learn more.

Left ArrowRight Arrow

Hourly Observations for April 11, 2018

Temp ( °F °C ) Dew Point ( °F °C ) Humidity (%) Winds ( mph kmh ) Pressure ( in mb ) Visibility ( mi km ) Precip ( " mm )
12:56 am 00:56 Clear 46 7.8 32 0 58 58 S 7 11 29.91 1013 10 16 0.00 0.00
1:56 am 01:56 Clear 46 7.8 32 0 58 58 SSW 9 15 29.89 1012 10 16 0.00 0.00
2:56 am 02:56 Clear 44 6.7 32 0 63 63 S 8 13 29.86 1011 10 16 0.00 0.00
3:56 am 03:56 Clear 44 6.7 31 -0.6 60 60 SSW 8 13 29.83 1010 10 16 0.00 0.00
4:56 am 04:56 Clear 46 7.8 32 0 58 58 SSW 9 15 29.81 1010 10 16 0.00 0.00
5:56 am 05:56 Clear 39 3.9 31 -0.6 73 73 S 8 13 29.80 1009 10 16 0.00 0.00
6:56 am 06:56 Clear 44 6.7 32 0 63 63 SW 8 13 29.78 1008 10 16 0.00 0.00
7:56 am 07:56 Sunny 44 6.7 33 0.6 65 65 SW 7 11 29.78 1008 10 16 0.00 0.00
8:56 am 08:56 Sunny 50 10 34 1.1 54 54 SW 10 17 29.76 1008 10 16 0.00 0.00
9:56 am 09:56 Sunny 58 14.4 34 1.1 41 41 WSW 12 19 29.75 1007 10 16 0.00 0.00
10:56 am 10:56 Sunny 65 18.3 33 0.6 31 31 WSW 12 19 29.73 1007 10 16 0.00 0.00
11:56 am 11:56 Mostly Sunny 64 17.8 34 1.1 33 33 WSW 9 15 29.75 1007 10 16 0.00 0.00
12:56 pm 12:56 Sunny 68 20 36 2.2 31 31 Calm 29.72 1007 10 16 0.00 0.00
1:56 pm 13:56 Sunny 72 22.2 35 1.7 26 26 W 3 6 29.67 1005 10 16 0.00 0.00
2:56 pm 14:56 Sunny 76 24.4 36 2.2 23 23 Calm 29.64 1004 10 16 0.00 0.00
3:56 pm 15:56 Sunny 79 26.1 34 1.1 20 20 VRB 3 6 29.62 1003 10 16 0.00 0.00
4:56 pm 16:56 Sunny 79 26.1 37 2.8 22 22 S 16 26 29.60 1002 10 16 0.00 0.00
5:56 pm 17:56 Sunny 77 25 38 3.3 24 24 SSW 17 28 29.60 1003 10 16 0.00 0.00
6:56 pm 18:56 Sunny 75 23.9 40 4.4 28 28 SSW 18 30 29.59 1002 10 16 0.00 0.00
8:27 pm 20:27 Mostly Clear 66 19 39 4 37 37 SSW 14 22 29.56 1001 10 16 0.00 0.00
9:56 pm 21:56 Clear 64 17.8 40 4.4 41 41 WSW 9 15 29.62 1003 10 16 0.00 0.00
10:56 pm 22:56 Clear 61 16.1 39 3.9 44 44 NNW 7 11 29.65 1004 10 16 0.00 0.00
11:56 pm 23:56 Clear 57 13.9 37 2.8 47 47 NNE 10 17 29.67 1005 10 16 0.00 0.00

Powered by AerisWeather